TimeEDT,TemperatureF,Dew PointF,Humidity,Sea Level PressureIn,VisibilityMPH,Wind Direction,Wind SpeedMPH,Gust SpeedMPH,PrecipitationIn,Events,Conditions,WindDirDegrees,DateUTC
12:56 AM,66.0,63.0,90,30.01,10.0,North,16.1,-,N/A,,Overcast,10,2013-10-08 04:56:00
1:56 AM,66.0,59.0,78,30.02,10.0,NE,17.3,26.5,N/A,,Overcast,40,2013-10-08 05:56:00
2:56 AM,64.9,53.1,65,30.04,10.0,NNE,24.2,29.9,N/A,,Overcast,30,2013-10-08 06:56:00
3:56 AM,64.9,51.1,61,30.06,10.0,NNE,18.4,31.1,N/A,,Overcast,20,2013-10-08 07:56:00
4:56 AM,64.0,50.0,60,30.08,10.0,North,16.1,-,N/A,,Overcast,10,2013-10-08 08:56:00
5:56 AM,63.0,52.0,67,30.09,10.0,NNE,24.2,32.2,0.00,Rain,Light Rain,20,2013-10-08 09:56:00
6:27 AM,63.0,51.1,65,30.10,10.0,NNE,17.3,24.2,0.00,,Overcast,20,2013-10-08 10:27:00
6:56 AM,63.0,51.1,65,30.11,10.0,NNE,18.4,23.0,0.00,,Overcast,20,2013-10-08 10:56:00
7:56 AM,63.0,50.0,63,30.14,10.0,NNE,18.4,25.3,N/A,,Overcast,30,2013-10-08 11:56:00
8:56 AM,63.0,51.1,65,30.17,10.0,NNE,19.6,26.5,N/A,,Overcast,20,2013-10-08 12:56:00
9:56 AM,63.0,52.0,67,30.17,10.0,NNE,19.6,28.8,N/A,,Overcast,20,2013-10-08 13:56:00
10:56 AM,63.0,54.0,72,30.17,10.0,NNE,18.4,28.8,N/A,,Overcast,30,2013-10-08 14:56:00
11:46 AM,62.1,57.0,84,30.17,10.0,NE,15.0,25.3,0.00,Rain,Light Rain,50,2013-10-08 15:46:00
11:56 AM,62.1,55.9,80,30.18,10.0,ENE,12.7,24.2,0.00,,Overcast,60,2013-10-08 15:56:00
12:43 PM,64.9,54.0,68,30.17,10.0,NE,16.1,26.5,N/A,,Overcast,40,2013-10-08 16:43:00
12:56 PM,64.9,53.1,65,30.17,10.0,NNE,18.4,-,N/A,,Overcast,30,2013-10-08 16:56:00
1:56 PM,64.9,54.0,68,30.16,10.0,NNE,20.7,28.8,N/A,,Overcast,30,2013-10-08 17:56:00
2:56 PM,64.9,55.0,70,30.15,10.0,NE,19.6,27.6,N/A,,Overcast,40,2013-10-08 18:56:00
3:56 PM,64.9,55.9,73,30.16,10.0,NE,16.1,-,N/A,,Overcast,40,2013-10-08 19:56:00
4:56 PM,64.9,57.0,75,30.16,10.0,NNE,13.8,29.9,N/A,,Overcast,30,2013-10-08 20:56:00
5:56 PM,64.9,57.9,78,30.16,10.0,NE,17.3,27.6,N/A,,Overcast,40,2013-10-08 21:56:00
6:25 PM,66.0,57.0,73,30.15,10.0,NE,21.9,29.9,N/A,,Overcast,40,2013-10-08 22:25:00
6:56 PM,66.0,57.0,73,30.16,10.0,NE,19.6,27.6,N/A,,Overcast,40,2013-10-08 22:56:00
7:56 PM,64.0,55.0,73,30.17,10.0,NE,21.9,31.1,N/A,,Overcast,40,2013-10-08 23:56:00
8:14 PM,64.9,55.0,70,30.17,10.0,NE,21.9,29.9,0.00,Rain,Light Rain,40,2013-10-09 00:14:00
8:56 PM,63.0,53.1,70,30.17,10.0,NE,23.0,34.5,0.00,Rain,Light Rain,40,2013-10-09 00:56:00
9:38 PM,64.9,53.1,65,30.17,10.0,NE,19.6,31.1,0.00,,Overcast,40,2013-10-09 01:38:00
9:56 PM,64.9,53.1,65,30.18,10.0,NE,21.9,28.8,0.00,,Overcast,50,2013-10-09 01:56:00
10:28 PM,64.0,54.0,70,30.18,10.0,NE,23.0,28.8,0.00,Rain,Light Rain,40,2013-10-09 02:28:00
10:56 PM,64.0,54.0,70,30.19,10.0,NE,20.7,-,0.00,Rain,Light Rain,50,2013-10-09 02:56:00
11:56 PM,63.0,55.9,78,30.18,10.0,NE,17.3,24.2,0.00,Rain,Light Rain,40,2013-10-09 03:56:00